Погода в Наблусе

Израиль     32°13′16″N   35°15′37″E
темп.,
°C
ветер,
м/с
пор.,
м/с
влажн.,
%
обл.,
%
осадки,
мм/ч
давл.,
гПа
погр.,
м
13 мая, чт
чт1300:00+16зюз22800 0.0 101224
03:00+15зюз22870 0.0 101119
06:00+15зюз22890 0.0 101216
09:00+20зюз22560 0.0 1013504
12:00+25з54350 0.0 10121225
15:00+25зсз65360 0.0 10121000
18:00+22зсз45430 0.0 1012508
21:00+17з33760 0.0 101472
14 мая, пт
пт1400:00+15зюз22850 0.0 101427
03:00+15зюз22820 0.0 101315
06:00+14зюз12830 0.0 101412
09:00+20зсз22510 0.0 1015456
12:00+25зсз33330 0.0 1014949
15:00+26зсз65350 0.0 1013900
18:00+22зсз67470 0.0 1013543
21:00+18з23730 0.0 101472
15 мая, сб
сб1500:00+16зюз22760 0.0 101421
03:00+15зюз22850 0.0 101318
06:00+15зюз22830 0.0 101312
09:00+21з11420 0.0 1014437
12:00+27зсз54260 0.0 10131069
15:00+26зсз76300 0.0 1012895
18:00+22зсз45430 0.0 1011482
21:00+17зюз22810 0.0 101240
16 мая, вс
вс1600:00+16зюз22880 0.0 101235
03:00+15юз22920 0.0 101114
06:00+15зюз11745 0.0 101011
09:00+21зсз33430 0.0 1011518
12:00+27з33240 0.0 10101080
15:00+28зсз87223 0.0 10081133
18:00+24зсз56339 0.0 1009513
21:00+19з22571 0.0 100921
17 мая, пн
пн1700:00+19з11370 0.0 100911
03:00+18з22365 0.0 100813
06:00+17зюз224676 0.0 100912
09:00+23з33325 0.0 1010487
12:00+26з77340 0.0 10101145
15:00+25з99390 0.0 1009978
18:00+20зсз79530 0.0 1010667
21:00+17зсз35845 0.0 1012210